Карточка аэропорта USRR

Внимание!
Информация на этой странице в стадии наполнения.
Если вы не увидели какой-то информации, или заметили неточность - пожалуйста сообщите нам!
Спасибо!
Команда RU-STAFF
Название аэропортаСургут
Название аэропорта (англ.)Surgut
Превышение196 ft. (59.7 m.)
Координаты61°20.502', 73°24.168'
Высота перехода700m
Эшелон переходаQFE>=742mm:FL040; QFE<=742mm:FL050
Коды ответчика5570-5577
Зона ОрВДТюмень РПИ (USTV)
Данные METARUSRR 290230Z 31009G15MPS 9999 -SHSN SCT026CB BKN041 M02/M07 Q1002 R25/35//55 TEMPO 0500 +SHSN VV002 RMK QFE746
Проноз погоды (TAF)USRR 290143Z 2903/3003 31010G17MPS 9999 FEW005 BKN016CB TEMPO 2903/2918 34012G22MPS 0500 +SHSN VV002 BECMG 2922/2924 31005G12MPS
NOTAMshow/hide NOTAM
AWOS   TABLE

Информация о ВПП

ВПП Длина ВПП (м.) Покрытие Курс ВПП Частота ILS
072780Асфальтобетон73110.5
252780Асфальтобетон253109.1

Диспетчерские позиции

Позывной Наименование органа УВД Частота
USRR_APPСургут-Подход129.300
USRR_R_APPСургут - Круг120.300
USRR_TWRСургут-Вышка120.800



Спутниковое изображение